Regional Weather Roundup
Issued by NWS San Angelo, TX

Home | Current Version | Previous Version | Text Only | Print | Product List | Glossary On
Versions: 1 2 3 4 5 6 7 8 9 10 11 12 13 14 15 16 17 18 19 20 21 22 23 24 25 26 27 28 29 30 31 32 33 34 35 36 37 38 39 40 41 42 43 44 45 46 47 48 49 50
000
ASUS44 KSJT 251610
RWRSJT
WEST CENTRAL TEXAS REGIONAL WEATHER ROUNDUP
NATIONAL WEATHER SERVICE SAN ANGELO TX
1100 AM CDT SUN JUN 25 2017

NOTE: "FAIR" INDICATES FEW OR NO CLOUDS BELOW 12,000 FEET WITH NO
SIGNIFICANT WEATHER AND/OR OBSTRUCTIONS TO VISIBILITY.

TXZ049-054-064>066-071>073-076>078-098-099-113-114-127-128-139-140-
154-155-168>170-251700
...LOCATIONS ACROSS WEST CENTRAL TEXAS...

CITY           SKY/WX    TMP DP  RH WIND       PRES   REMARKS
SAN ANGELO     CLOUDY    78  64  61 NE8       30.24S
ABILENE        PTSUNNY   75  67  76 E5        30.25S
DYESS AFB      PTSUNNY   77  68  73 CALM      30.24R
JUNCTION       PTSUNNY   78  67  68 E10       30.22R
SWEETWATER     CLOUDY    75  66  74 E5        30.29S
BROWNWOOD      MOSUNNY   79  68  69 E7        30.23F
COLEMAN        PTSUNNY   78  66  66 E8        30.25S
SONORA         SUNNY     81  63  54 VRB5      30.26F
OZONA          FAIR      81  61  50 SE8       30.26S
BRADY          NOT AVBL
$$

TEXAS PANHANDLE/OKLAHOMA PANHANDLE

CITY           SKY/WX    TMP DP  RH WIND       PRES   REMARKS
AMARILLO       CLOUDY    65  63  93 S10       30.33R
BORGER         CLOUDY    70  62  76 S9        30.32S
CANADIAN       LGT RAIN  66  63  90 S5        30.34R
DALHART        PTSUNNY   71  62  73 SW16      30.33F
DUMAS          PTSUNNY   67  61  79 S9        30.33S
GUYMON         NOT AVBL
HEREFORD       LGT RAIN  65  64  96 S14       30.32F
PAMPA          CLOUDY    65  63  91 S8        30.35R FOG
PERRYTON       CLOUDY    67  64  88 S9        30.32S
$$

SOUTHERN PANHANDLE/SOUTH PLAINS/ROLLING PLAINS

CITY           SKY/WX    TMP DP  RH WIND       PRES   REMARKS
LUBBOCK        PTSUNNY   75  62  64 S7        30.31R
SNYDER         PTSUNNY   76  64  66 NE3       30.28S
CHILDRESS      CLOUDY    76  62  62 SE6       30.29S
SEMINOLE       PTSUNNY   76  64  67 SE9       30.30F
$$

PERMIAN BASIN

CITY           SKY/WX    TMP DP  RH WIND       PRES   REMARKS
MIDLAND        CLOUDY    80  63  55 SE8       30.26R
ODESSA         PTSUNNY   79  63  57 S9        30.27S
WINK           SUNNY     82  62  50 MISG      30.22F
$$

FAR WEST/SOUTHWEST MOUNTAINS/TRANS PECOS

CITY           SKY/WX    TMP DP  RH WIND       PRES   REMARKS
ALPINE         MOSUNNY   75  61  62 CALM      30.37S
DRYDEN           N/A     79  65  62 SE9       30.22S
EL PASO        PTSUNNY   82  63  52 SE8       30.23R
FORT STOCKTON  SUNNY     81  63  54 SE14G21   30.23F
GUADALUPE PASS MOSUNNY   73  63  70 E21       30.36S
MARFA          MOSUNNY   74  60  61 VRB6      30.35F
PECOS          SUNNY     81  63  55 SE14      30.22F
$$

DALLAS/FORT WORTH METROPLEX

CITY           SKY/WX    TMP DP  RH WIND       PRES   REMARKS
DFW AIRPORT    MOSUNNY   82  65  56 E10       30.21S
FTW MEACHAM    PTSUNNY   81  65  58 E14       30.22R
DAL-EXECUTIVE  CLOUDY    78  68  71 E12       30.22R
GRAND PRAIRIE  NOT AVBL
ADDISON        SUNNY     79  61  53 E15G23    30.22S
MESQUITE       MOSUNNY   81  64  57 E9G16     30.23R
LANCASTER      CLOUDY    76  65  68 SE8       30.24R
$$

NORTH CENTRAL TEXAS

CITY           SKY/WX    TMP DP  RH WIND       PRES   REMARKS
SHRMAN/DENISON SUNNY     80  62  54 E10       30.26R
GAINESVILLE    SUNNY     79  60  52 SE13      30.27R
BRIDGEPORT     SUNNY     79  62  55 SE10      30.26R
DENTON         SUNNY     80  64  58 E16       30.22F
WAXAHACHIE     CLOUDY    77  67  72 E6        30.24R
GRANBURY       CLOUDY    81  67  62 E10       30.23F
$$

WESTERN NORTH TEXAS

CITY           SKY/WX    TMP DP  RH WIND       PRES   REMARKS
WICHITA FALLS  SUNNY     79  61  53 SE13      30.25R
VERNON         CLOUDY    78  53  41 SE13      30.27R
BRECKENRIDGE   MOSUNNY   81  64  55 E9        30.23S
COMANCHE       CLOUDY    76  70  82 E5        30.24S
$$

CENTRAL AND SOUTH CENTRAL TEXAS

CITY           SKY/WX    TMP DP  RH WIND       PRES   REMARKS
AUSTIN/BERGSTM MOSUNNY   84  71  65 NE7       30.17S
WACO           PTSUNNY   80  72  76 E10       30.20R
HILLSBORO      PTSUNNY   78  70  76 E13       30.21S
TEMPLE         CLOUDY    75  72  90 NE12      30.21R
KILLEEN-GRAY   CLOUDY    75  71  86 NE10      30.20R
FORT HOOD      CLOUDY    73  70  92 NE9       30.18R
GEORGETOWN     NOT AVBL
LAGO VISTA     PTSUNNY   81  71  72 E3        30.21R
SAN MARCOS     PTSUNNY   81  72  74 N6        30.19R
NEW BRAUNFELS  CLOUDY    85  72  65 NE9       30.16S
RANDOLPH AFB   CLOUDY    81  73  78 E10       30.17R
SAN ANTONIO    PTSUNNY   84  70  62 N8        30.17S
STINSON        PTSUNNY   84  72  67 E6        30.14F
PLEASANTON     NOT AVBL
LA GRANGE      MOSUNNY   85  73  66 CALM      30.14S
GIDDINGS       CLOUDY    80  71  74 E3        30.18R
$$

EAST TEXAS

CITY           SKY/WX    TMP DP  RH WIND       PRES   REMARKS
PARIS            N/A     80  63  55 SE12      30.25S
CLARKSVILLE    NOT AVBL
TYLER          CLOUDY    76  68  76 E8        30.23R
LONGVIEW       CLOUDY    75  69  81 E7        30.23R
PALESTINE      CLOUDY    75  68  78 E12       30.23S
NACOGDOCHES    CLOUDY    75  68  78 MISG      30.21R
$$

TEXAS HILL COUNTRY AND EDWARDS PLATEAU

CITY           SKY/WX    TMP DP  RH WIND       PRES   REMARKS
LLANO          MOSUNNY   81  70  69 NE7       30.24S
HORSESHOE BAY  CLOUDY    79  71  75 NE5       30.21R
KERRVILLE      CLOUDY    77  69  77 E7        30.22S
FREDERICKSBRG  CLOUDY    76  66  71 NE3       30.22S
ROCKSPRINGS    SUNNY     79  70  73 CALM      30.26R
HONDO          PTSUNNY   86  71  60 E7        30.17F
UVALDE         CLOUDY    81  70  70 NE7       30.18S
DEL RIO        CLOUDY    79  69  71 S3        30.18R
$$

SOUTHEAST TEXAS

CITY           SKY/WX    TMP DP  RH WIND       PRES   REMARKS
COLLEGE STN    CLOUDY    77  74  90 E14       30.17F
CALDWELL       NOT AVBL
CROCKETT       CLOUDY    75  70  83 SE5       30.24S
BRENHAM        PTSUNNY   79  74  85 NE3       30.17F
HUNTSVILLE     PTSUNNY   77  72  84 E5        30.20R
CONROE         CLOUDY    80  70  71 E8        30.18F
HOUSTON BUSH   CLOUDY    79  74  84 NE10      30.17R
HOUSTON HOBBY  CLOUDY    83  73  72 NE10      30.15R
PERLAND        PTSUNNY   85  75  72 NE8       30.16R
WHARTON        MOSUNNY   85  72  65 CALM      30.16R
$$

THE UPPER TEXAS COAST

CITY           SKY/WX    TMP DP  RH WIND       PRES   REMARKS
ORANGE         CLOUDY    84  76  76 NE5       30.18S
PORT ARTHUR    PTSUNNY   81  75  82 E5        30.15S
GALVESTON      RAIN      79  75  87 S9        30.15R FOG
ANGLETON       MOSUNNY   86  77  74 NE5       30.14S
BAY CITY       MOSUNNY   86  76  72 E6        30.14S
$$

TEXAS COASTAL BEND, RIO GRANDE PLAINS DEEP SOUTH TEXAS

CITY           SKY/WX    TMP DP  RH WIND       PRES   REMARKS
VICTORIA       CLOUDY    86  72  62 NE7       30.14S
BEEVILLE       FAIR      88  73  61 E8        30.13S
ROCKPORT       CLOUDY    78  73  84 E12       30.13R
PORT ARANSAS   TSTM      73  70  91 SE10G21   30.13F
PORT LAVACA    MOSUNNY   86  75  70 CALM      30.14S
CORPUS CHRISTI HVY RAIN  78  74  87 NE17      30.13R FOG
KINGSVILLE NAS MOSUNNY   89  79  72 E12       30.10F
COTULLA        PTSUNNY   83  71  67 VRB6      30.15S
LAREDO         CLOUDY    85  74  69 E6        30.13F
BROWNSVILLE    TSTM      74  71  91 NW12G20   30.09R FOG
PORT ISABEL    CLOUDY    87  78  74 E8        30.07F
HEBBRONVILLE   MOSUNNY   83  72  69 CALM      30.13F
MCALLEN        PTSUNNY   84  75  74 E8        30.10R THUNDER
WESLACO        CLOUDY    84  76  78 E5        30.07F
FALFURRIAS     MOSUNNY   87  75  67 NE9       30.09F
EDINBURG       CLOUDY    86  71  59 S9G18     30.11R THUNDER
$$




USA.gov is the U.S. government's official web portal to all federal, state and local government web resources and services.